STARLINK-5477 (55659 NORAD) Tracking and Keplerian Element Data

This shows tracking and keplerian element data for the satellite.

Feedback or suggestion? Click here.




ElementValue
Catalog55659
NameSTARLINK-5477
Epoch Orbit130
Epoch Day62.91667824
Epoch Year2023
RAAN110.1878
Inclination69.9996
Eccentricity0.0003597
Argument of Perigee278.9543
Mean Anonmoly325.9865
Mean Motion15.75188918
Decay Rate-0.01037412
L11 55659U 23021AH 23062.91667824 -.01037412 00000+0 -76440-2 0 9996
L22 55659 69.9996 110.1878 0003597 278.9543 325.9865 15.75188918 1303



Live tracking and technical data element details for STARLINK-5477 (NORAD 55659). STARLINK-5477 can be tracked NOW for your location showing map with azimuth and elevation plus other details from your city location.







IsCatalogInMostPopularTable: catalog: 55659, numindb: 1
Update: records affected: 1



GetName: 55659 STARLINK-5477

Hit Count: updated at: Mon, 20 Mar 2023 13:37:36 GMT